Year,Month,Day,Hour,Minute,Value (Times are PST for temperature in C)
2014,03,29,00,00,6.30
2014,03,29,00,01,6.30
2014,03,29,00,02,6.30
2014,03,29,00,04,6.30
2014,03,29,00,05,6.30
2014,03,29,00,06,6.30
2014,03,29,00,07,6.30
2014,03,29,00,08,6.30
2014,03,29,00,09,6.30
2014,03,29,00,10,6.30
2014,03,29,00,11,6.30
2014,03,29,00,12,6.30
2014,03,29,00,13,6.30
2014,03,29,00,14,6.30
2014,03,29,00,15,6.30
2014,03,29,00,16,6.30
2014,03,29,00,18,6.30
2014,03,29,00,19,6.30
2014,03,29,00,20,6.30
2014,03,29,00,21,6.30
2014,03,29,00,22,6.30
2014,03,29,00,23,6.30
2014,03,29,00,24,6.30
2014,03,29,00,25,6.30
2014,03,29,00,26,6.30
2014,03,29,00,27,6.30
2014,03,29,00,28,6.30
2014,03,29,00,29,6.30
2014,03,29,00,30,6.30
2014,03,29,00,31,6.30
2014,03,29,00,33,6.20
2014,03,29,00,34,6.30
2014,03,29,00,35,6.20
2014,03,29,00,36,6.20
2014,03,29,00,37,6.20
2014,03,29,00,38,6.20
2014,03,29,00,39,6.20
2014,03,29,00,40,6.20
2014,03,29,00,42,6.20
2014,03,29,00,43,6.20
2014,03,29,00,44,6.20
2014,03,29,00,45,6.20
2014,03,29,00,46,6.20
2014,03,29,00,47,6.20
2014,03,29,00,48,6.20
2014,03,29,00,49,6.20
2014,03,29,00,50,6.20
2014,03,29,00,51,6.20
2014,03,29,00,52,6.20
2014,03,29,00,53,6.20
2014,03,29,00,54,6.20
2014,03,29,00,55,6.20
2014,03,29,00,56,6.20
2014,03,29,00,57,6.20
2014,03,29,00,58,6.20
2014,03,29,01,00,6.20
2014,03,29,01,01,6.20
2014,03,29,01,02,6.20
2014,03,29,01,04,6.20
2014,03,29,01,05,6.20
2014,03,29,01,06,6.20
2014,03,29,01,07,6.20
2014,03,29,01,08,6.20
2014,03,29,01,09,6.20
2014,03,29,01,10,6.20
2014,03,29,01,11,6.20
2014,03,29,01,12,6.20
2014,03,29,01,13,6.20
2014,03,29,01,14,6.20
2014,03,29,01,15,6.20
2014,03,29,01,16,6.20
2014,03,29,01,17,6.20
2014,03,29,01,18,6.20
2014,03,29,01,19,6.20
2014,03,29,01,20,6.20
2014,03,29,01,21,6.10
2014,03,29,01,22,6.10
2014,03,29,01,23,6.10
2014,03,29,01,24,6.10
2014,03,29,01,25,6.10
2014,03,29,01,26,6.10
2014,03,29,01,27,6.10
2014,03,29,01,28,6.10
2014,03,29,01,29,6.10
2014,03,29,01,30,6.10
2014,03,29,01,31,6.10
2014,03,29,01,32,6.10
2014,03,29,01,33,6.10
2014,03,29,01,34,6.10
2014,03,29,01,35,6.10
2014,03,29,01,36,6.10
2014,03,29,01,37,6.10
2014,03,29,01,39,6.10
2014,03,29,01,41,6.10
2014,03,29,01,43,6.10
2014,03,29,01,44,6.00
2014,03,29,01,45,6.10
2014,03,29,01,46,6.00
2014,03,29,01,47,6.00
2014,03,29,01,48,6.00
2014,03,29,01,49,6.00
2014,03,29,01,50,6.00
2014,03,29,01,51,6.00
2014,03,29,01,52,6.00
2014,03,29,01,53,6.00
2014,03,29,01,54,6.00
2014,03,29,01,55,5.90
2014,03,29,01,56,5.90
2014,03,29,01,57,5.90
2014,03,29,01,59,5.90
2014,03,29,02,00,5.90
2014,03,29,02,01,5.90
2014,03,29,02,02,5.90
2014,03,29,02,04,5.90
2014,03,29,02,05,5.90
2014,03,29,02,06,5.90
2014,03,29,02,07,5.90
2014,03,29,02,08,5.90
2014,03,29,02,09,5.90
2014,03,29,02,10,5.90
2014,03,29,02,11,5.90
2014,03,29,02,12,5.90
2014,03,29,02,13,5.90
2014,03,29,02,14,5.90
2014,03,29,02,15,5.90
2014,03,29,02,16,5.90
2014,03,29,02,17,5.90
2014,03,29,02,18,5.80
2014,03,29,02,19,5.80
2014,03,29,02,20,5.80
2014,03,29,02,22,5.80
2014,03,29,02,23,5.80
2014,03,29,02,24,5.80
2014,03,29,02,25,5.80
2014,03,29,02,26,5.80
2014,03,29,02,27,5.80
2014,03,29,02,28,5.80
2014,03,29,02,29,5.80
2014,03,29,02,30,5.80
2014,03,29,02,31,5.80
2014,03,29,02,32,5.80
2014,03,29,02,33,5.80
2014,03,29,02,34,5.80
2014,03,29,02,35,5.80
2014,03,29,02,36,5.80
2014,03,29,02,37,5.80
2014,03,29,02,38,5.80
2014,03,29,02,39,5.80
2014,03,29,02,40,5.80
2014,03,29,02,41,5.80
2014,03,29,02,43,5.80
2014,03,29,02,44,5.80
2014,03,29,02,45,5.80
2014,03,29,02,46,5.80
2014,03,29,02,47,5.70
2014,03,29,02,48,5.80
2014,03,29,02,49,5.70
2014,03,29,02,51,5.70
2014,03,29,02,52,5.70
2014,03,29,02,53,5.70
2014,03,29,02,54,5.70
2014,03,29,02,55,5.70
2014,03,29,02,56,5.70
2014,03,29,02,57,5.70
2014,03,29,02,58,5.70
2014,03,29,02,59,5.70
2014,03,29,03,00,5.70
2014,03,29,03,01,5.70
2014,03,29,03,03,5.70
2014,03,29,03,04,5.70
2014,03,29,03,05,5.70
2014,03,29,03,06,5.70
2014,03,29,03,07,5.70
2014,03,29,03,08,5.70
2014,03,29,03,09,5.70
2014,03,29,03,10,5.70
2014,03,29,03,11,5.70
2014,03,29,03,12,5.70
2014,03,29,03,13,5.70
2014,03,29,03,14,5.70
2014,03,29,03,16,5.70
2014,03,29,03,17,5.80
2014,03,29,03,18,5.80
2014,03,29,03,20,5.80
2014,03,29,03,21,5.80
2014,03,29,03,22,5.80
2014,03,29,03,23,5.80
2014,03,29,03,24,5.80
2014,03,29,03,25,5.80
2014,03,29,03,27,5.80
2014,03,29,03,29,5.80
2014,03,29,03,30,5.80
2014,03,29,03,31,5.80
2014,03,29,03,32,5.90
2014,03,29,03,33,5.90
2014,03,29,03,34,5.90
2014,03,29,03,35,5.90
2014,03,29,03,36,5.90
2014,03,29,03,37,5.90
2014,03,29,03,38,5.90
2014,03,29,03,39,5.90
2014,03,29,03,40,5.90
2014,03,29,03,41,5.90
2014,03,29,03,42,5.90
2014,03,29,03,43,5.90
2014,03,29,03,44,5.90
2014,03,29,03,45,5.90
2014,03,29,03,47,6.00
2014,03,29,03,48,6.00
2014,03,29,03,49,6.10
2014,03,29,03,50,6.10
2014,03,29,03,51,6.10
2014,03,29,03,52,6.10
2014,03,29,03,53,6.20
2014,03,29,03,54,6.20
2014,03,29,03,55,6.20
2014,03,29,03,56,6.20
2014,03,29,03,57,6.20
2014,03,29,03,58,6.30
2014,03,29,03,59,6.30
2014,03,29,04,00,6.30
2014,03,29,04,01,6.30
2014,03,29,04,03,6.30
2014,03,29,04,04,6.30
2014,03,29,04,05,6.40
2014,03,29,04,06,6.40
2014,03,29,04,07,6.40
2014,03,29,04,08,6.40
2014,03,29,04,09,6.40
2014,03,29,04,10,6.40
2014,03,29,04,11,6.40
2014,03,29,04,12,6.40
2014,03,29,04,13,6.40
2014,03,29,04,14,6.50
2014,03,29,04,15,6.40
2014,03,29,04,16,6.50
2014,03,29,04,17,6.50
2014,03,29,04,18,6.50
2014,03,29,04,19,6.50
2014,03,29,04,20,6.50
2014,03,29,04,21,6.50
2014,03,29,04,22,6.50
2014,03,29,04,23,6.50
2014,03,29,04,24,6.50
2014,03,29,04,25,6.50
2014,03,29,04,26,6.50
2014,03,29,04,27,6.50
2014,03,29,04,28,6.50
2014,03,29,04,29,6.50
2014,03,29,04,30,6.50
2014,03,29,04,31,6.50
2014,03,29,04,32,6.50
2014,03,29,04,33,6.50
2014,03,29,04,34,6.50
2014,03,29,04,36,6.50
2014,03,29,04,37,6.50
2014,03,29,04,38,6.50
2014,03,29,04,39,6.50
2014,03,29,04,41,6.50
2014,03,29,04,42,6.50
2014,03,29,04,43,6.50
2014,03,29,04,44,6.60
2014,03,29,04,45,6.60
2014,03,29,04,46,6.50
2014,03,29,04,47,6.60
2014,03,29,04,49,6.60
2014,03,29,04,50,6.60
2014,03,29,04,52,6.60
2014,03,29,04,53,6.60
2014,03,29,04,54,6.60
2014,03,29,04,55,6.60
2014,03,29,04,57,6.60
2014,03,29,04,58,6.60
2014,03,29,04,59,6.60
2014,03,29,05,01,6.60
2014,03,29,05,02,6.60
2014,03,29,05,04,6.60
2014,03,29,05,05,6.60
2014,03,29,05,06,6.60
2014,03,29,05,07,6.60
2014,03,29,05,08,6.60
2014,03,29,05,09,6.60
2014,03,29,05,11,6.60
2014,03,29,05,12,6.60
2014,03,29,05,13,6.60
2014,03,29,05,14,6.60
2014,03,29,05,15,6.60
2014,03,29,05,16,6.60
2014,03,29,05,17,6.60
2014,03,29,05,18,6.60
2014,03,29,05,19,6.60
2014,03,29,05,20,6.60
2014,03,29,05,22,6.60
2014,03,29,05,24,6.60
2014,03,29,05,25,6.60
2014,03,29,05,26,6.60
2014,03,29,05,27,6.60
2014,03,29,05,29,6.60
2014,03,29,05,30,6.60
2014,03,29,05,31,6.60
2014,03,29,05,32,6.60
2014,03,29,05,33,6.60
2014,03,29,05,34,6.60
2014,03,29,05,36,6.60
2014,03,29,05,37,6.50
2014,03,29,05,38,6.60
2014,03,29,05,39,6.50
2014,03,29,05,40,6.50
2014,03,29,05,41,6.50
2014,03,29,05,42,6.50
2014,03,29,05,43,6.50
2014,03,29,05,44,6.40
2014,03,29,05,45,6.50
2014,03,29,05,46,6.40
2014,03,29,05,47,6.40
2014,03,29,05,48,6.40
2014,03,29,05,50,6.40
2014,03,29,05,52,6.40
2014,03,29,05,53,6.40
2014,03,29,05,54,6.40
2014,03,29,05,55,6.40
2014,03,29,05,56,6.40
2014,03,29,05,57,6.40
2014,03,29,05,58,6.40
2014,03,29,05,59,6.40
2014,03,29,06,01,6.40
2014,03,29,06,02,6.40
2014,03,29,06,04,6.40
2014,03,29,06,05,6.40
2014,03,29,06,06,6.40
2014,03,29,06,07,6.40
2014,03,29,06,08,6.40
2014,03,29,06,09,6.40
2014,03,29,06,10,6.40
2014,03,29,06,11,6.40
2014,03,29,06,12,6.40
2014,03,29,06,14,6.40
2014,03,29,06,16,6.40
2014,03,29,06,18,6.40
2014,03,29,06,19,6.40
2014,03,29,06,20,6.40
2014,03,29,06,22,6.40
2014,03,29,06,23,6.40
2014,03,29,06,24,6.40
2014,03,29,06,25,6.40
2014,03,29,06,26,6.40
2014,03,29,06,27,6.40
2014,03,29,06,29,6.40
2014,03,29,06,30,6.40
2014,03,29,06,31,6.40
2014,03,29,06,32,6.40
2014,03,29,06,33,6.40
2014,03,29,06,34,6.40
2014,03,29,06,35,6.40
2014,03,29,06,36,6.40
2014,03,29,06,37,6.40
2014,03,29,06,38,6.40
2014,03,29,06,39,6.40
2014,03,29,06,40,6.40
2014,03,29,06,41,6.40
2014,03,29,06,42,6.40
2014,03,29,06,43,6.40
2014,03,29,06,44,6.40
2014,03,29,06,45,6.40
2014,03,29,06,47,6.40
2014,03,29,06,49,6.40
2014,03,29,06,50,6.40
2014,03,29,06,52,6.40
2014,03,29,06,53,6.40
2014,03,29,06,54,6.40
2014,03,29,06,55,6.40
2014,03,29,06,56,6.40
2014,03,29,06,57,6.40
2014,03,29,06,58,6.40
2014,03,29,06,59,6.40
2014,03,29,07,00,6.40
2014,03,29,07,01,6.40
2014,03,29,07,03,6.40
2014,03,29,07,04,6.30
2014,03,29,07,05,6.30
2014,03,29,07,06,6.40
2014,03,29,07,07,6.30
2014,03,29,07,08,6.30
2014,03,29,07,09,6.40
2014,03,29,07,10,6.30
2014,03,29,07,11,6.30
2014,03,29,07,12,6.30
2014,03,29,07,14,6.30
2014,03,29,07,15,6.30
2014,03,29,07,17,6.30
2014,03,29,07,18,6.30
2014,03,29,07,19,6.30
2014,03,29,07,20,6.30
2014,03,29,07,21,6.30
2014,03,29,07,23,6.20
2014,03,29,07,24,6.20
2014,03,29,07,25,6.20
2014,03,29,07,26,6.20
2014,03,29,07,27,6.20
2014,03,29,07,28,6.20
2014,03,29,07,29,6.20
2014,03,29,07,30,6.20
2014,03,29,07,31,6.20
2014,03,29,07,33,6.20
2014,03,29,07,34,6.20
2014,03,29,07,35,6.20
2014,03,29,07,36,6.20
2014,03,29,07,37,6.20
2014,03,29,07,38,6.20
2014,03,29,07,39,6.20
2014,03,29,07,40,6.20
2014,03,29,07,41,6.20
2014,03,29,07,42,6.20
2014,03,29,07,44,6.20
2014,03,29,07,46,6.10
2014,03,29,07,47,6.10
2014,03,29,07,48,6.10
2014,03,29,07,49,6.10
2014,03,29,07,50,6.10
2014,03,29,07,51,6.10
2014,03,29,07,52,6.10
2014,03,29,07,53,6.10
2014,03,29,07,54,6.10
2014,03,29,07,55,6.10
2014,03,29,07,56,6.10
2014,03,29,07,57,6.10
2014,03,29,07,58,6.20
2014,03,29,07,59,6.10
2014,03,29,08,00,6.10
2014,03,29,08,01,6.10
2014,03,29,08,03,6.10
2014,03,29,08,04,6.10
2014,03,29,08,05,6.10
2014,03,29,08,06,6.10
2014,03,29,08,07,6.10
2014,03,29,08,08,6.10
2014,03,29,08,09,6.10
2014,03,29,08,10,6.10
2014,03,29,08,11,6.10
2014,03,29,08,12,6.10
2014,03,29,08,13,6.10
2014,03,29,08,14,6.10
2014,03,29,08,16,6.10
2014,03,29,08,17,6.10
2014,03,29,08,18,6.10
2014,03,29,08,19,6.10
2014,03,29,08,20,6.10
2014,03,29,08,21,6.10
2014,03,29,08,22,6.10
2014,03,29,08,23,6.10
2014,03,29,08,24,6.10
2014,03,29,08,25,6.10
2014,03,29,08,26,6.10
2014,03,29,08,27,6.10
2014,03,29,08,28,6.10
2014,03,29,08,29,6.10
2014,03,29,08,30,6.10
2014,03,29,08,31,6.10
2014,03,29,08,32,6.10
2014,03,29,08,33,6.10
2014,03,29,08,34,6.10
2014,03,29,08,35,6.10
2014,03,29,08,37,6.10
2014,03,29,08,38,6.10
2014,03,29,08,39,6.10
2014,03,29,08,40,6.10
2014,03,29,08,42,6.10
2014,03,29,08,44,6.10
2014,03,29,08,45,6.10
2014,03,29,08,46,6.10
2014,03,29,08,48,6.10
2014,03,29,08,49,6.10
2014,03,29,08,50,6.10
2014,03,29,08,51,6.10
2014,03,29,08,53,6.20
2014,03,29,08,54,6.20
2014,03,29,08,55,6.20
2014,03,29,08,56,6.20
2014,03,29,08,57,6.20
2014,03,29,08,58,6.20
2014,03,29,08,59,6.30
2014,03,29,09,00,6.30
2014,03,29,09,01,6.30
2014,03,29,09,03,6.30
2014,03,29,09,04,6.30
2014,03,29,09,05,6.30
2014,03,29,09,06,6.40
2014,03,29,09,07,6.40
2014,03,29,09,08,6.40
2014,03,29,09,09,6.40
2014,03,29,09,10,6.50
2014,03,29,09,11,6.60
2014,03,29,09,13,6.70
2014,03,29,09,14,6.80
2014,03,29,09,16,6.90
2014,03,29,09,18,7.10
2014,03,29,09,19,7.10
2014,03,29,09,21,7.20
2014,03,29,09,23,7.20
2014,03,29,09,24,7.20
2014,03,29,09,26,7.20
2014,03,29,09,27,7.20
2014,03,29,09,29,7.20
2014,03,29,09,30,7.20
2014,03,29,09,32,7.20
2014,03,29,09,33,7.20
2014,03,29,09,34,7.20
2014,03,29,09,35,7.20
2014,03,29,09,37,7.30
2014,03,29,09,39,7.30
2014,03,29,09,40,7.30
2014,03,29,09,42,7.40
2014,03,29,09,44,7.50
2014,03,29,09,45,7.60
2014,03,29,09,47,7.60
2014,03,29,09,49,7.80
2014,03,29,09,51,7.90
2014,03,29,09,53,8.10
2014,03,29,09,54,8.10
2014,03,29,09,55,8.20
2014,03,29,09,57,8.30
2014,03,29,09,58,8.30
2014,03,29,09,59,8.30
2014,03,29,10,00,8.40
2014,03,29,10,01,8.40
2014,03,29,10,03,8.60
2014,03,29,10,04,8.60
2014,03,29,10,05,8.70
2014,03,29,10,06,8.70
2014,03,29,10,07,8.80
2014,03,29,10,08,8.80
2014,03,29,10,09,8.90
2014,03,29,10,10,8.90
2014,03,29,10,12,9.00
2014,03,29,10,14,9.10
2014,03,29,10,15,9.10
2014,03,29,10,17,9.20
2014,03,29,10,18,9.20
2014,03,29,10,19,9.20
2014,03,29,10,21,9.20
2014,03,29,10,23,9.20
2014,03,29,10,24,9.10
2014,03,29,10,26,9.10
2014,03,29,10,27,9.10
2014,03,29,10,28,9.10
2014,03,29,10,29,9.10
2014,03,29,10,31,9.20
2014,03,29,10,32,9.20
2014,03,29,10,34,9.30
2014,03,29,10,35,9.40
2014,03,29,10,36,9.40
2014,03,29,10,38,9.50
2014,03,29,10,39,9.50
2014,03,29,10,41,9.50
2014,03,29,10,42,9.50
2014,03,29,10,44,9.40
2014,03,29,10,46,9.40
2014,03,29,10,47,9.30
2014,03,29,10,48,9.30
2014,03,29,10,49,9.30
2014,03,29,10,51,9.30
2014,03,29,10,53,9.30
2014,03,29,10,54,9.30
2014,03,29,10,56,9.40
2014,03,29,10,57,9.40
2014,03,29,10,59,9.40
2014,03,29,11,00,9.40
2014,03,29,11,02,9.40
2014,03,29,11,03,9.40
2014,03,29,11,04,9.50
2014,03,29,11,05,9.60
2014,03,29,11,06,9.60
2014,03,29,11,07,9.70
2014,03,29,11,08,9.70
2014,03,29,11,09,9.80
2014,03,29,11,11,9.80
2014,03,29,11,12,9.80
2014,03,29,11,13,9.80
2014,03,29,11,14,9.90
2014,03,29,11,15,9.90
2014,03,29,11,17,9.90
2014,03,29,11,18,9.90
2014,03,29,11,19,10.00
2014,03,29,11,21,10.00
2014,03,29,11,22,10.10
2014,03,29,11,23,10.10
2014,03,29,11,24,10.20
2014,03,29,11,25,10.20
2014,03,29,11,26,10.20
2014,03,29,11,27,10.20
2014,03,29,11,28,10.20
2014,03,29,11,29,10.20
2014,03,29,11,30,10.10
2014,03,29,11,31,10.10
2014,03,29,11,32,10.00
2014,03,29,11,33,9.90
2014,03,29,11,34,9.80
2014,03,29,11,36,9.50
2014,03,29,11,37,9.40
2014,03,29,11,38,9.20
2014,03,29,11,39,9.20
2014,03,29,11,40,9.00
2014,03,29,11,41,8.90
2014,03,29,11,42,8.80
2014,03,29,11,43,8.70
2014,03,29,11,44,8.60
2014,03,29,11,45,8.60
2014,03,29,11,46,8.50
2014,03,29,11,47,8.40
2014,03,29,11,48,8.40
2014,03,29,11,49,8.30
2014,03,29,11,50,8.30
2014,03,29,11,52,8.20
2014,03,29,11,53,8.20
2014,03,29,11,54,8.20
2014,03,29,11,55,8.20
2014,03,29,11,56,8.20
2014,03,29,11,57,8.30
2014,03,29,11,58,8.30
2014,03,29,11,59,8.30
2014,03,29,12,01,8.50
2014,03,29,12,03,8.70
2014,03,29,12,04,8.70
2014,03,29,12,06,8.80
2014,03,29,12,08,8.80
2014,03,29,12,09,8.90
2014,03,29,12,10,8.90
2014,03,29,12,12,9.00
2014,03,29,12,13,9.00
2014,03,29,12,14,9.10
2014,03,29,12,15,9.10
2014,03,29,12,17,9.20
2014,03,29,12,18,9.30
2014,03,29,12,19,9.40
2014,03,29,12,21,9.50
2014,03,29,12,22,9.60
2014,03,29,12,23,9.60
2014,03,29,12,24,9.60
2014,03,29,12,25,9.60
2014,03,29,12,27,9.60
2014,03,29,12,28,9.60
2014,03,29,12,29,9.60
2014,03,29,12,31,9.40
2014,03,29,12,33,9.30
2014,03,29,12,34,9.30
2014,03,29,12,36,9.20
2014,03,29,12,37,9.10
2014,03,29,12,38,9.00
2014,03,29,12,39,8.90
2014,03,29,12,40,8.90
2014,03,29,12,41,8.90
2014,03,29,12,42,8.90
2014,03,29,12,44,8.90
2014,03,29,12,46,9.00
2014,03,29,12,48,9.10
2014,03,29,12,49,9.10
2014,03,29,12,51,9.20
2014,03,29,12,53,9.30
2014,03,29,12,54,9.30
2014,03,29,12,56,9.40
2014,03,29,12,58,9.50
2014,03,29,12,59,9.60
2014,03,29,13,00,9.70
2014,03,29,13,01,9.70
2014,03,29,13,03,9.70
2014,03,29,13,04,9.70
2014,03,29,13,05,9.70
2014,03,29,13,06,9.60
2014,03,29,13,07,9.60
2014,03,29,13,08,9.50
2014,03,29,13,09,9.40
2014,03,29,13,10,9.40
2014,03,29,13,11,9.40
2014,03,29,13,12,9.40
2014,03,29,13,13,9.40
2014,03,29,13,14,9.30
2014,03,29,13,16,9.30
2014,03,29,13,18,9.40
2014,03,29,13,19,9.30
2014,03,29,13,20,9.30
2014,03,29,13,22,9.30
2014,03,29,13,24,9.30
2014,03,29,13,25,9.30
2014,03,29,13,26,9.30
2014,03,29,13,28,9.30
2014,03,29,13,29,9.30
2014,03,29,13,31,9.30
2014,03,29,13,33,9.30
2014,03,29,13,34,9.20
2014,03,29,13,36,9.10
2014,03,29,13,38,9.10
2014,03,29,13,39,9.10
2014,03,29,13,41,9.00
2014,03,29,13,43,8.90
2014,03,29,13,44,8.80
2014,03,29,13,45,8.80
2014,03,29,13,47,8.70
2014,03,29,13,48,8.70
2014,03,29,13,49,8.60
2014,03,29,13,51,8.50
2014,03,29,13,52,8.50
2014,03,29,13,53,8.50
2014,03,29,13,54,8.40
2014,03,29,13,56,8.40
2014,03,29,13,58,8.40
2014,03,29,13,59,8.40
2014,03,29,14,01,8.30
2014,03,29,14,03,8.30
2014,03,29,14,04,8.30
2014,03,29,14,05,8.20
2014,03,29,14,06,8.20
2014,03,29,14,07,8.10
2014,03,29,14,08,8.10
2014,03,29,14,09,8.00
2014,03,29,14,11,7.90
2014,03,29,14,12,7.90
2014,03,29,14,13,7.80
2014,03,29,14,14,7.80
2014,03,29,14,15,7.80
2014,03,29,14,17,7.80
2014,03,29,14,19,7.80
2014,03,29,14,20,7.80
2014,03,29,14,21,7.80
2014,03,29,14,23,7.80
2014,03,29,14,24,7.80
2014,03,29,14,26,7.90
2014,03,29,14,27,7.90
2014,03,29,14,29,7.90
2014,03,29,14,31,8.10
2014,03,29,14,33,8.10
2014,03,29,14,34,8.10
2014,03,29,14,35,8.20
2014,03,29,14,36,8.20
2014,03,29,14,38,8.30
2014,03,29,14,39,8.40
2014,03,29,14,40,8.40
2014,03,29,14,41,8.50
2014,03,29,14,43,8.60
2014,03,29,14,44,8.70
2014,03,29,14,45,8.70
2014,03,29,14,46,8.70
2014,03,29,14,47,8.70
2014,03,29,14,48,8.70
2014,03,29,14,49,8.80
2014,03,29,14,51,8.80
2014,03,29,14,52,8.90
2014,03,29,14,53,8.90
2014,03,29,14,54,8.90
2014,03,29,14,55,8.90
2014,03,29,14,56,8.90
2014,03,29,14,58,8.90
2014,03,29,14,59,9.00
2014,03,29,15,01,9.10
2014,03,29,15,03,9.10
2014,03,29,15,04,9.10
2014,03,29,15,05,9.10
2014,03,29,15,06,9.20
2014,03,29,15,07,9.20
2014,03,29,15,08,9.20
2014,03,29,15,09,9.30
2014,03,29,15,11,9.30
2014,03,29,15,13,9.30
2014,03,29,15,14,9.30
2014,03,29,15,15,9.20
2014,03,29,15,16,9.20
2014,03,29,15,18,9.00
2014,03,29,15,19,9.00
2014,03,29,15,20,8.90
2014,03,29,15,21,8.90
2014,03,29,15,22,8.80
2014,03,29,15,23,8.80
2014,03,29,15,24,8.70
2014,03,29,15,25,8.70
2014,03,29,15,26,8.70
2014,03,29,15,28,8.70
2014,03,29,15,29,8.70
2014,03,29,15,30,8.60
2014,03,29,15,31,8.60
2014,03,29,15,33,8.60
2014,03,29,15,34,8.60
2014,03,29,15,35,8.60
2014,03,29,15,36,8.60
2014,03,29,15,38,8.60
2014,03,29,15,39,8.50
2014,03,29,15,41,8.50
2014,03,29,15,42,8.40
2014,03,29,15,44,8.40
2014,03,29,15,45,8.40
2014,03,29,15,46,8.40
2014,03,29,15,47,8.30
2014,03,29,15,49,8.30
2014,03,29,15,51,8.30
2014,03,29,15,52,8.30
2014,03,29,15,54,8.20
2014,03,29,15,56,8.10
2014,03,29,15,58,8.10
2014,03,29,15,59,8.10
2014,03,29,16,01,8.00
2014,03,29,16,02,7.90
2014,03,29,16,03,7.90
2014,03,29,16,04,7.90
2014,03,29,16,05,7.90
2014,03,29,16,06,7.90
2014,03,29,16,07,7.90
2014,03,29,16,08,7.90
2014,03,29,16,09,7.80
2014,03,29,16,10,7.80
2014,03,29,16,11,7.80
2014,03,29,16,12,7.80
2014,03,29,16,13,7.80
2014,03,29,16,14,7.80
2014,03,29,16,16,7.80
2014,03,29,16,17,7.80
2014,03,29,16,18,7.80
2014,03,29,16,19,7.80
2014,03,29,16,20,7.80
2014,03,29,16,21,7.80
2014,03,29,16,22,7.80
2014,03,29,16,23,7.80
2014,03,29,16,24,7.80
2014,03,29,16,25,7.80
2014,03,29,16,27,7.80
2014,03,29,16,29,7.80
2014,03,29,16,30,7.80
2014,03,29,16,31,7.80
2014,03,29,16,33,7.80
2014,03,29,16,34,7.80
2014,03,29,16,36,7.80
2014,03,29,16,37,7.80
2014,03,29,16,39,7.90
2014,03,29,16,41,7.80
2014,03,29,16,43,7.90
2014,03,29,16,44,7.90
2014,03,29,16,45,7.90
2014,03,29,16,46,7.90
2014,03,29,16,47,7.90
2014,03,29,16,48,7.90
2014,03,29,16,49,7.90
2014,03,29,16,50,7.90
2014,03,29,16,52,7.90
2014,03,29,16,53,7.90
2014,03,29,16,54,7.90
2014,03,29,16,56,7.90
2014,03,29,16,57,7.90
2014,03,29,16,58,7.90
2014,03,29,16,59,7.90
2014,03,29,17,01,7.90
2014,03,29,17,03,7.90
2014,03,29,17,04,7.90
2014,03,29,17,05,7.90
2014,03,29,17,06,7.90
2014,03,29,17,07,7.90
2014,03,29,17,08,7.90
2014,03,29,17,09,7.90
2014,03,29,17,10,7.90
2014,03,29,17,11,7.90
2014,03,29,17,12,7.90
2014,03,29,17,14,7.90
2014,03,29,17,16,7.90
2014,03,29,17,17,7.90
2014,03,29,17,18,7.90
2014,03,29,17,20,7.80
2014,03,29,17,21,7.80
2014,03,29,17,23,7.80
2014,03,29,17,25,7.80
2014,03,29,17,27,7.80
2014,03,29,17,29,7.80
2014,03,29,17,30,7.80
2014,03,29,17,31,7.80
2014,03,29,17,32,7.80
2014,03,29,17,33,7.80
2014,03,29,17,34,7.80
2014,03,29,17,35,7.80
2014,03,29,17,36,7.70
2014,03,29,17,37,7.70
2014,03,29,17,38,7.70
2014,03,29,17,39,7.70
2014,03,29,17,41,7.70
2014,03,29,17,42,7.70
2014,03,29,17,44,7.70
2014,03,29,17,46,7.80
2014,03,29,17,47,7.80
2014,03,29,17,48,7.80
2014,03,29,17,49,7.80
2014,03,29,17,51,7.80
2014,03,29,17,53,7.80
2014,03,29,17,55,7.90
2014,03,29,17,57,7.90
2014,03,29,17,58,7.90
2014,03,29,17,59,7.90
2014,03,29,18,01,7.90
2014,03,29,18,03,7.90
2014,03,29,18,04,7.90
2014,03,29,18,05,7.90
2014,03,29,18,06,7.90
2014,03,29,18,07,7.90
2014,03,29,18,08,7.90
2014,03,29,18,09,7.90
2014,03,29,18,10,7.90
2014,03,29,18,11,7.90
2014,03,29,18,13,7.90
2014,03,29,18,14,7.90
2014,03,29,18,15,7.90
2014,03,29,18,16,7.90
2014,03,29,18,17,7.90
2014,03,29,18,18,7.90
2014,03,29,18,19,7.90
2014,03,29,18,20,7.90
2014,03,29,18,21,7.90
2014,03,29,18,22,8.00
2014,03,29,18,23,8.00
2014,03,29,18,24,8.00
2014,03,29,18,25,8.00
2014,03,29,18,26,8.00
2014,03,29,18,27,8.00
2014,03,29,18,28,8.00
2014,03,29,18,29,8.00
2014,03,29,18,30,7.90
2014,03,29,18,31,7.90
2014,03,29,18,32,7.90
2014,03,29,18,33,7.90
2014,03,29,18,34,7.90
2014,03,29,18,35,7.90
2014,03,29,18,36,7.90
2014,03,29,18,37,7.90
2014,03,29,18,38,7.90
2014,03,29,18,39,7.90
2014,03,29,18,40,7.90
2014,03,29,18,41,7.90
2014,03,29,18,42,7.90
2014,03,29,18,43,7.90
2014,03,29,18,44,7.90
2014,03,29,18,45,7.90
2014,03,29,18,46,7.90
2014,03,29,18,47,7.90
2014,03,29,18,48,7.90
2014,03,29,18,49,7.90
2014,03,29,18,50,7.90
2014,03,29,18,51,7.90
2014,03,29,18,52,7.90
2014,03,29,18,53,7.90
2014,03,29,18,54,7.90
2014,03,29,18,55,7.90
2014,03,29,18,56,7.90
2014,03,29,18,57,7.90
2014,03,29,18,58,7.90
2014,03,29,18,59,7.90
2014,03,29,19,00,7.90
2014,03,29,19,01,7.90
2014,03,29,19,02,7.90
2014,03,29,19,04,7.90
2014,03,29,19,05,7.90
2014,03,29,19,06,7.90
2014,03,29,19,07,7.90
2014,03,29,19,08,7.90
2014,03,29,19,09,7.90
2014,03,29,19,10,7.90
2014,03,29,19,11,7.90
2014,03,29,19,12,7.90
2014,03,29,19,13,7.90
2014,03,29,19,14,7.80
2014,03,29,19,15,7.80
2014,03,29,19,16,7.80
2014,03,29,19,17,7.80
2014,03,29,19,18,7.80
2014,03,29,19,19,7.80
2014,03,29,19,20,7.80
2014,03,29,19,21,7.80
2014,03,29,19,23,7.80
2014,03,29,19,24,7.80
2014,03,29,19,25,7.80
2014,03,29,19,26,7.80
2014,03,29,19,27,7.80
2014,03,29,19,28,7.80
2014,03,29,19,29,7.80
2014,03,29,19,30,7.80
2014,03,29,19,32,7.80
2014,03,29,19,33,7.80
2014,03,29,19,34,7.80
2014,03,29,19,36,7.80
2014,03,29,19,37,7.70
2014,03,29,19,38,7.80
2014,03,29,19,39,7.80
2014,03,29,19,40,7.70
2014,03,29,19,41,7.70
2014,03,29,19,42,7.70
2014,03,29,19,43,7.70
2014,03,29,19,44,7.70
2014,03,29,19,45,7.70
2014,03,29,19,46,7.70
2014,03,29,19,47,7.70
2014,03,29,19,48,7.70
2014,03,29,19,49,7.70
2014,03,29,19,50,7.70
2014,03,29,19,51,7.70
2014,03,29,19,52,7.70
2014,03,29,19,54,7.70
2014,03,29,19,55,7.70
2014,03,29,19,56,7.70
2014,03,29,19,57,7.70
2014,03,29,19,58,7.70
2014,03,29,19,59,7.70
2014,03,29,20,00,7.60
2014,03,29,20,01,7.60
2014,03,29,20,02,7.60
2014,03,29,20,05,7.60
2014,03,29,20,06,7.60
2014,03,29,20,07,7.60
2014,03,29,20,08,7.60
2014,03,29,20,09,7.60
2014,03,29,20,10,7.60
2014,03,29,20,11,7.60
2014,03,29,20,12,7.60
2014,03,29,20,13,7.50
2014,03,29,20,14,7.50
2014,03,29,20,15,7.50
2014,03,29,20,16,7.50
2014,03,29,20,17,7.50
2014,03,29,20,18,7.50
2014,03,29,20,19,7.50
2014,03,29,20,20,7.50
2014,03,29,20,21,7.40
2014,03,29,20,22,7.40
2014,03,29,20,23,7.40
2014,03,29,20,24,7.40
2014,03,29,20,25,7.40
2014,03,29,20,26,7.30
2014,03,29,20,27,7.20
2014,03,29,20,28,7.20
2014,03,29,20,29,7.10
2014,03,29,20,30,6.90
2014,03,29,20,31,6.90
2014,03,29,20,32,6.80
2014,03,29,20,33,6.80
2014,03,29,20,34,6.70
2014,03,29,20,35,6.70
2014,03,29,20,36,6.60
2014,03,29,20,37,6.60
2014,03,29,20,38,6.50
2014,03,29,20,39,6.40
2014,03,29,20,40,6.40
2014,03,29,20,41,6.40
2014,03,29,20,42,6.30
2014,03,29,20,43,6.30
2014,03,29,20,44,6.30
2014,03,29,20,45,6.30
2014,03,29,20,46,6.30
2014,03,29,20,47,6.20
2014,03,29,20,48,6.20
2014,03,29,20,49,6.20
2014,03,29,20,50,6.20
2014,03,29,20,51,6.20
2014,03,29,20,52,6.20
2014,03,29,20,53,6.20
2014,03,29,20,54,6.20
2014,03,29,20,55,6.10
2014,03,29,20,56,6.10
2014,03,29,20,57,6.10
2014,03,29,20,58,6.10
2014,03,29,20,59,6.10
2014,03,29,21,00,6.10
2014,03,29,21,01,6.00
2014,03,29,21,02,6.00
2014,03,29,21,04,5.90
2014,03,29,21,05,5.90
2014,03,29,21,06,5.90
2014,03,29,21,07,5.90
2014,03,29,21,08,5.90
2014,03,29,21,09,6.00
2014,03,29,21,10,5.90
2014,03,29,21,11,6.00
2014,03,29,21,12,5.90
2014,03,29,21,13,5.90
2014,03,29,21,14,5.90
2014,03,29,21,15,5.90
2014,03,29,21,16,5.90
2014,03,29,21,17,5.90
2014,03,29,21,18,5.90
2014,03,29,21,19,5.90
2014,03,29,21,20,5.90
2014,03,29,21,21,5.90
2014,03,29,21,23,5.90
2014,03,29,21,24,5.90
2014,03,29,21,25,5.90
2014,03,29,21,26,5.90
2014,03,29,21,27,5.90
2014,03,29,21,28,5.90